Location: Newark
(47.9297°N, 19.1367°E)
Time: 16:34:26
(UTC+00:00)

Envisat - Visible Passes

Search period start: 30 September 2020 00:00
Search period end: 10 October 2020 00:00
Orbit: 764 x 766 km, 98.1° (Epoch: 29 September)

Date Brightness Start Highest point End Pass type
(mag) Time Alt. Az. Time Alt. Az. Time Alt. Az.
30 Sep 6.0 03:44:50 10° NE 03:48:37 21° E 03:52:23 10° SE visible
02 Oct 5.1 04:09:40 10° NNE 04:14:18 34° E 04:18:52 10° SSE visible
02 Oct 6.1 17:08:15 10° SW 17:11:53 19° W 17:15:31 10° NW visible
03 Oct 6.2 03:33:53 10° NE 03:37:07 17° E 03:40:19 10° SE visible
04 Oct 6.6 17:36:04 10° WSW 17:37:40 11° W 17:39:16 10° WNW visible
05 Oct 5.5 03:58:31 10° NE 04:02:50 27° E 04:07:08 10° SSE visible
05 Oct 5.8 16:56:19 10° SW 17:00:23 24° W 17:04:29 10° NW visible
06 Oct 6.4 03:23:11 10° ENE 03:25:36 13° E 03:28:01 10° ESE visible
07 Oct 6.3 17:23:25 10° WSW 17:26:08 14° W 17:28:53 10° NW visible
08 Oct 5.8 03:47:24 10° NE 03:51:22 22° E 03:55:17 10° SE visible
08 Oct 5.3 16:44:31 10° SSW 16:48:55 29° W 16:53:21 10° NNW visible
09 Oct 6.7 03:13:14 10° ENE 03:14:04 10° E 03:14:54 10° E visible
